Location: Chevoux
(46.3801°N, 4.9476°E)
Time: 11:52:22
(UTC+00:00)

Vanguard 1 Rocket - Visible Passes

Search period start: 13 May 2021 00:00
Search period end: 23 May 2021 00:00
Orbit: 652 x 4224 km, 34.3° (Epoch: 12 May)

Date Brightness Start Highest point End Pass type
(mag) Time Alt. Az. Time Alt. Az. Time Alt. Az.
14 May 11.6 03:10:44 10° S 03:27:59 23° SE 03:42:22 10° E visible
15 May 11.7 02:03:40 10° SSE 02:15:00 15° SE 02:25:30 10° ESE visible
16 May 11.5 03:10:15 10° S 03:29:51 29° SE 03:46:12 10° E visible
17 May 11.6 02:01:12 10° S 02:16:40 20° SE 02:31:00 10° E visible
18 May 11.7 00:58:30 10° SE 01:04:01 11° SE 01:09:29 10° ESE visible
18 May 11.3 03:10:28 10° SSW 03:31:41 34° SE 03:49:34 10° E visible
19 May 11.4 02:00:21 10° S 02:18:17 25° SE 02:35:10 10° E visible
20 May 11.5 00:53:21 10° SSE 01:05:28 16° SE 01:17:42 10° E visible
20 May 11.2 03:11:13 10° SSW 03:33:29 40° SSE 03:52:38 10° E visible
21 May 11.3 02:00:52 11° S 02:19:52 31° SE 02:38:40 10° E visible
22 May 11.3 00:53:17 12° SSE 01:06:53 21° SE 01:22:38 10° E visible
22 May 11.1 03:12:21 10° SW 03:35:16 45° SSE 03:55:31 10° E visible
